Location: Wanzleben
(52.0609°N, 11.4408°E)
Time: 19:03:22
(UTC+00:00)

USA 229 - Pass Details

Date: 18 September 2020
Orbit: 973 x 1239 km, 63.4° (Epoch: 14 October)

Event Time Altitude Azimuth Distance (km) Brightness Sun altitude
Rises 22:27:09 0° 308° (NW) 3,879 7.3 -35.8°
Reaches altitude 10° 22:29:52 10° 314° (NW) 2,960 6.6 -35.9°
Maximum altitude 22:36:44 50° 29° (NNE) 1,436 4.5 -36.1°
Enters shadow 22:37:28 48° 48° (NE) 1,470 4.4 -36.1°
